Location: Newark
(48.6461°N, 4.3644°W)
Time: 09:31:55
(UTC+00:00)

STARLINK 1043 - Pass Details

Date: 10 December 2019
Orbit: 549 x 550 km, 53.0° (Epoch: 28 January)

Event Time Altitude Azimuth Distance (km) Brightness Sun altitude
Exits shadow 05:45:56 52° 226° (SW) 688 3.8 -20.8°
Maximum altitude 05:46:08 52° 214° (SW) 683 3.9 -20.8°
Drops below altitude 10° 05:50:09 10° 138° (SE) 1,816 7.0 -20.2°
Enters shadow 06:46:41 -69° 325° (NW) 12,466 10.4 -11.2°
